CST,Max TemperatureF,Mean TemperatureF,Min TemperatureF,Max Dew PointF,MeanDew PointF,Min DewpointF,Max Humidity, Mean Humidity, Min Humidity, Max Sea Level PressureIn, Mean Sea Level PressureIn, Min Sea Level PressureIn, Max VisibilityMiles, Mean VisibilityMiles, Min VisibilityMiles, Max Wind SpeedMPH, Mean Wind SpeedMPH, Max Gust SpeedMPH,PrecipitationIn, CloudCover, Events, WindDirDegrees
2012-11-1,75,62,46,60,46,35,95,61,29,30.09,30.02,29.96,10,10,10,10,5,,0.00,1,,322
2012-11-2,81,61,42,65,54,40,95,77,48,30.09,30.04,29.99,10,10,5,12,3,,0.00,1,,222
2012-11-3,84,69,56,69,62,56,100,88,46,30.14,30.09,30.04,10,5,0,13,3,,0.00,0,Fog,249
2012-11-4,80,68,57,70,59,54,100,92,43,30.11,30.07,30.00,10,4,0,12,1,17,0.01,1,Fog,294
2012-11-5,73,60,47,55,47,32,98,68,22,30.09,29.99,29.91,10,10,7,13,4,24,0.03,4,Rain,355
2012-11-6,63,55,47,55,49,44,100,91,52,30.02,29.95,29.89,10,6,0,14,7,17,0.28,6,Fog-Rain,331
2012-11-7,64,54,44,45,42,37,97,68,39,30.12,30.02,29.94,10,10,10,14,7,,0.00,2,,304
2012-11-8,64,50,37,43,38,35,95,72,38,30.24,30.19,30.12,10,10,10,12,4,,0.00,0,,346
2012-11-9,71,52,32,46,40,31,96,67,29,30.32,30.25,30.21,10,10,10,8,1,,0.00,1,,169
2012-11-10,72,54,37,54,47,36,97,71,40,30.34,30.28,30.25,10,10,8,10,3,,0.00,0,,139
2012-11-11,76,62,47,57,52,43,95,67,45,30.32,30.26,30.22,10,10,10,16,6,23,0.00,1,,113
2012-11-12,73,64,53,67,61,49,100,90,73,30.28,30.22,30.17,10,8,1,20,11,24,0.25,6,Rain-Thunderstorm,352
2012-11-13,62,50,38,47,37,31,87,65,30,30.34,30.27,30.21,10,10,10,17,12,24,0.00,4,,351
2012-11-14,57,48,38,54,46,32,100,91,75,30.27,30.23,30.20,10,7,0,8,5,,0.02,7,Fog-Rain,4
2012-11-15,57,53,48,54,49,44,100,90,69,30.26,30.22,30.19,10,7,2,10,6,,0.00,8,,18
2012-11-16,56,48,38,48,44,37,97,85,72,30.29,30.25,30.22,10,10,9,12,5,,0.00,6,,23
2012-11-17,63,48,33,45,37,33,100,88,45,30.34,30.28,30.25,10,4,1,13,2,21,0.00,0,,355
2012-11-18,69,56,42,47,42,36,93,68,40,30.31,30.28,30.23,10,10,10,10,5,,0.00,2,,14
2012-11-19,70,54,39,50,44,38,97,75,42,30.28,30.23,30.17,10,10,10,10,3,,0.00,1,,348
2012-11-20,67,53,39,54,48,38,97,81,55,30.20,30.14,30.10,10,10,10,7,2,,0.00,4,,333
2012-11-21,73,57,41,50,44,41,100,94,41,30.19,30.14,30.10,10,3,0,13,0,,0.00,0,Fog,336
2012-11-22,73,56,39,49,45,39,100,80,35,30.25,30.20,30.17,10,7,1,8,1,,0.00,0,,306
2012-11-23,73,58,42,51,44,41,100,82,37,30.26,30.21,30.12,10,6,1,10,2,17,0.00,0,,297
2012-11-24,60,50,39,50,33,24,87,56,25,30.24,30.18,30.14,10,10,10,15,9,20,0.00,0,,345
2012-11-25,64,45,26,34,27,22,91,61,21,30.26,30.18,30.14,10,10,10,9,2,,0.00,0,,210
2012-11-26,67,48,30,57,45,28,92,73,49,30.24,30.18,30.14,10,10,10,8,2,,0.00,4,Rain,135
2012-11-27,64,60,54,64,59,54,100,97,90,30.26,30.16,30.09,10,8,0,16,4,,1.04,6,Fog-Rain,346
2012-11-28,61,49,36,54,46,35,100,86,43,30.38,30.31,30.25,10,8,2,13,8,,0.00,5,,355
2012-11-29,64,48,32,52,38,32,100,92,53,30.40,30.34,30.29,10,4,0,10,1,,0.00,3,Fog,39
2012-11-30,72,58,45,56,51,45,99,82,47,30.32,30.27,30.22,10,10,5,12,3,,0.00,4,,99